Location: Lombard
(41.8800°N, 88.0080°W)
Time: 12:06:41
(UTC-06:00)

Transit 4A - Pass Details

Date: 29 November 2023
Orbit: 870 x 973 km, 66.8° (Epoch: 02 March)

Event Time Altitude Azimuth Distance (km) Brightness Sun altitude
Rises 04:39:40 0° 336° (NNW) 3,616 - -25.2°
Exits shadow 04:42:44 10° 350° (N) 2,670 10.1 -24.6°
Reaches altitude 10° 04:42:48 10° 350° (N) 2,650 10.1 -24.6°
Maximum altitude 04:47:40 24° 43° (NE) 1,819 9.7 -23.7°
Drops below altitude 10° 04:52:25 10° 95° (E) 2,582 11.3 -22.8°
Sets 04:55:24 0° 110° (ESE) 3,502 12.3 -22.3°
